Home > Weather > Barysaw > Past weeks

Flag for Belarus Past Weather in Barysaw, Belarus — Yesterday and Last 2 Weeks

Now
86 °F

Passing clouds.


Feels Like: 84 °F
Forecast: 62 / 87 °F
Wind: 6 mph from Southwest

Location: Minsk

Current Time: Jul 1, 2016 at 2:49:51 PM

Latest Report: Jul 1, 2016 at 2:00 PM


Visibility: N/A

Pressure: 30.04 "Hg

Humidity: 31%

Dew Point: 52 °F

Location of BarysawLocation

Past Weather in Barysaw — Graph

°F

Barysaw Temperature Yesterday

Maximum temperature yesterday: 84 °F (at 3:30 PM)
Minimum temperature yesterday: 54 °F (at 4:00 AM)
Average temperature yesterday: 71 °F

High & Low Weather Summary for the Past Weeks

 TemperatureHumidityPressure
High88 °F (Jun 25, 4:30 PM)100% (Jun 17, 12:00 AM)30.36 "Hg (Jun 17, 12:00 AM)
Low50 °F (Jun 19, 5:00 AM)29% (Jun 25, 5:30 PM)29.65 "Hg (Jun 17, 8:30 PM)
Average70 °F68%30.05 "Hg
* Reported Jun 16 1:00 PM — Jul 1 1:30 PM, Barysaw, Weather by CustomWeather, © 2016

Note: Actual official high and low records may vary slightly from our data, if they occured in-between our weather recording intervals... More about our weather records

Advertising

Barysaw Weather History for the Previous 24 Hours

Scroll right to see more
 ConditionsComfort  
Time TempWeatherWind HumidityBarometerVisibility
1:30 PM
Fri, Jul 1
84 °FSunny.6 mph35%30.04 "Hg10 mi
1:00 PM86 °FPassing clouds.8 mph33%30.04 "HgN/A
12:30 PM84 °FPassing clouds.6 mph37%30.04 "HgN/A
12:00 PM84 °FPassing clouds.6 mph33%30.04 "HgN/A
11:30 AM84 °FPassing clouds.3 mph37%30.04 "HgN/A
11:00 AM82 °FPassing clouds.6 mph42%30.04 "HgN/A
10:30 AM81 °FPassing clouds.6 mph48%30.04 "HgN/A
10:00 AM81 °FPassing clouds.6 mph48%30.04 "HgN/A
9:30 AM79 °FPassing clouds.6 mph54%30.04 "HgN/A
9:00 AM77 °FPassing clouds.6 mph57%30.04 "HgN/A
8:30 AM77 °FPassing clouds.3 mph57%30.04 "HgN/A
8:00 AM73 °FPassing clouds.3 mph61%30.04 "HgN/A
7:30 AM73 °FPassing clouds.3 mph61%30.04 "HgN/A
7:00 AM72 °FPassing clouds.3 mph65%30.04 "HgN/A
6:30 AM64 °FSunny.No wind83%30.04 "Hg10 mi
6:00 AM61 °FSunny.No wind88%30.04 "Hg10 mi
5:30 AM59 °FClear.No wind88%30.04 "Hg10 mi
5:00 AM59 °FClear.No wind94%30.04 "Hg10 mi
4:30 AM59 °FClear.No wind88%30.04 "Hg10 mi
4:00 AM59 °FClear.No wind88%30.04 "Hg10 mi
3:30 AM59 °FClear.No wind88%30.04 "Hg10 mi
3:00 AM59 °FClear.No wind88%30.04 "Hg10 mi
2:30 AM61 °FClear.No wind88%30.04 "Hg10 mi
2:00 AM59 °FClear.No wind88%30.04 "Hg10 mi
1:30 AM63 °FClear.No wind83%30.04 "Hg10 mi
1:00 AM61 °FClear.No wind88%30.04 "Hg10 mi
12:30 AM63 °FClear.No wind83%30.04 "Hg10 mi
12:00 AM63 °FClear.No wind83%30.04 "Hg10 mi
11:30 PM
Thu, Jun 30
64 °FClear.No wind78%30.04 "Hg10 mi
11:00 PM66 °FClear.No wind78%30.04 "Hg10 mi
10:30 PM68 °FSunny.No wind73%30.04 "Hg10 mi
10:00 PM70 °FSunny.No wind69%30.01 "Hg10 mi
9:30 PM73 °FSunny.1 mph57%30.01 "Hg10 mi
9:00 PM77 °FSunny.6 mph51%30.01 "Hg10 mi
8:30 PM77 °FSunny.6 mph47%30.01 "Hg10 mi
8:00 PM79 °FSunny.10 mph45%30.01 "Hg10 mi
7:30 PM77 °FSunny.1 mph61%29.98 "Hg10 mi
7:00 PM77 °FSunny.No wind57%29.98 "Hg10 mi
6:30 PM81 °FSunny.No wind45%29.98 "Hg10 mi
6:00 PM84 °FSunny.No wind33%29.98 "Hg10 mi
5:30 PM81 °FSunny.No wind42%29.98 "Hg10 mi
5:00 PM84 °FSunny.No wind33%29.98 "Hg10 mi
4:30 PM82 °FPassing clouds.6 mph32%29.98 "HgN/A
4:00 PM82 °FPassing clouds.6 mph32%29.98 "HgN/A
3:30 PM84 °FSunny.6 mph31%29.98 "Hg10 mi
3:00 PM82 °FSunny.6 mph32%30.01 "Hg10 mi
2:30 PM82 °FPassing clouds.6 mph32%30.01 "HgN/A
2:00 PM82 °FScattered clouds.6 mph32%30.01 "HgN/A
Weather by CustomWeather, © 2016

See weather overviewHow to use our weather pages